Pittsfield, IL

2:41 AM CST on November 23, 2017 (GMT -0600)
Pittsfield Penstone Municipal

Weather History for KPPQ - December, 2011

Change the Weather History Date:

Sunday, December 11, 2011

  Actual Average (KUIN) Record (KUIN)
Temperature  
Mean Temperature 35 °F -  
Max Temperature 45 °F 38 °F 69 °F (1949)
Min Temperature 25 °F 22 °F -8 °F (1917)
Degree Days  
Heating Degree Days 30    
Moisture  
Dew Point 26 °F    
Average Humidity 73    
Maximum Humidity 82    
Minimum Humidity 59    
Precipitation  
Precipitation 0.00 in - - ()
Sea Level Pressure  
Sea Level Pressure 30.42 in    
Wind  
Wind Speed 7 mph (South)    
Max Wind Speed 10 mph    
Max Gust Speed -    
Visibility 10 miles    
Events      
Averages and records for this station are not official NWS values.
T = Trace of Precipitation, MM = Missing Value Source: NWS Daily Summary

Daily Weather History Graph

Daily Weather History Graph

Search for Another Location

Airport or City:

Trip Planner

Search our weather history database for the weather conditions in past years. The results will help you decide how hot, cold, wet, or windy it might be!

Date:

Astronomy

Dec. 11, 2011 Rise Set
Actual Time 7:13 AM CST 4:38 PM CST
Civil Twilight 6:43 AM CST 5:09 PM CST
Nautical Twilight 6:09 AM CST 5:42 PM CST
Astronomical Twilight 5:36 AM CST 6:15 PM CST
Moon 5:49 PM CST (12/11) 8:02 AM CST (12/11)
Length of Visible Light 10h 25m
Length of Day
9h 25m
Full, 99% of the Moon is Illuminated
Dec 11
Full
Dec 17
Last Quarter
Dec 24
New
Jan 1
First Quarter
Jan 9
Full

Hourly Weather History & Observations

Time (CST) Temp. Windchill Dew Point Humidity Pressure Visibility Wind Dir Wind Speed Gust Speed Precip Events Conditions
12:15 AM 27.3 °F 19.9 °F 21.2 °F 78% 30.45 in 10.0 mi SSE 6.9 mph - N/A   Clear
12:35 AM 26.8 °F 19.3 °F 21.2 °F 79% 30.44 in 10.0 mi South 6.9 mph - N/A   Clear
12:55 AM 26.4 °F 19.8 °F 21.0 °F 80% 30.44 in 10.0 mi SSE 5.8 mph - N/A   Clear
1:15 AM 25.7 °F 21.5 °F 20.7 °F 81% 30.44 in 10.0 mi South 3.5 mph - N/A   Clear
1:35 AM 26.4 °F 22.4 °F 20.7 °F 79% 30.44 in 10.0 mi South 3.5 mph - N/A   Clear
1:55 AM 26.6 °F 19.1 °F 20.8 °F 79% 30.44 in 10.0 mi South 6.9 mph - N/A   Clear
2:15 AM 27.5 °F 20.2 °F 21.0 °F 77% 30.44 in 10.0 mi South 6.9 mph - N/A   Clear
2:35 AM 27.7 °F 20.4 °F 20.8 °F 75% 30.44 in 10.0 mi South 6.9 mph - N/A   Clear
2:55 AM 28.0 °F 20.8 °F 21.0 °F 75% 30.43 in 10.0 mi South 6.9 mph - N/A   Clear
3:15 AM 28.4 °F 20.4 °F 21.2 °F 74% 30.43 in 10.0 mi South 8.1 mph - N/A   Clear
3:35 AM 28.4 °F 20.4 °F 21.2 °F 74% 30.43 in 10.0 mi South 8.1 mph - N/A   Clear
3:55 AM 28.0 °F 20.8 °F 21.6 °F 77% 30.43 in 10.0 mi South 6.9 mph - N/A   Clear
4:15 AM 28.0 °F 20.8 °F 21.6 °F 77% 30.44 in 10.0 mi South 6.9 mph - N/A   Clear
4:35 AM 28.4 °F 19.7 °F 21.2 °F 74% 30.44 in 10.0 mi South 9.2 mph - N/A   Clear
4:55 AM 28.0 °F 20.8 °F 21.7 °F 77% 30.44 in 10.0 mi South 6.9 mph - N/A   Clear
5:15 AM 28.0 °F 20.8 °F 21.9 °F 78% 30.44 in 10.0 mi South 6.9 mph - N/A   Clear
5:35 AM 28.0 °F 20.8 °F 22.1 °F 78% 30.44 in 10.0 mi South 6.9 mph - N/A   Clear
5:55 AM 28.2 °F 20.2 °F 22.1 °F 78% 30.44 in 10.0 mi South 8.1 mph - N/A   Clear
6:15 AM 28.4 °F 20.4 °F 22.5 °F 78% 30.45 in 10.0 mi South 8.1 mph - N/A   Clear
6:35 AM 28.2 °F 20.2 °F 22.6 °F 80% 30.45 in 10.0 mi South 8.1 mph - N/A   Clear
6:55 AM 28.4 °F 21.2 °F 22.6 °F 79% 30.45 in 10.0 mi South 6.9 mph - N/A   Clear
7:15 AM 27.5 °F 19.3 °F 22.6 °F 82% 30.45 in 10.0 mi SSE 8.1 mph - N/A   Clear
7:35 AM 28.0 °F 20.8 °F 22.8 °F 81% 30.45 in 10.0 mi SSE 6.9 mph - N/A   Clear
7:55 AM 29.1 °F 21.3 °F 23.4 °F 79% 30.45 in 10.0 mi South 8.1 mph - N/A   Clear
8:15 AM 30.0 °F 21.1 °F 23.7 °F 77% 30.46 in 10.0 mi South 10.4 mph - N/A   Clear
8:35 AM 30.9 °F 23.5 °F 24.6 °F 77% 30.46 in 10.0 mi South 8.1 mph - N/A   Clear
8:55 AM 32.0 °F 24.8 °F 24.8 °F 75% 30.46 in 10.0 mi South 8.1 mph - N/A   Clear
9:15 AM 32.7 °F 25.0 °F 26.2 °F 77% 30.46 in 10.0 mi South 9.2 mph - N/A   Clear
9:35 AM 33.8 °F 26.4 °F 27.0 °F 76% 30.45 in 10.0 mi SSW 9.2 mph - N/A   Clear
9:55 AM 35.4 °F 29.0 °F 27.7 °F 73% 30.45 in 10.0 mi SSW 8.1 mph - N/A   Clear
10:15 AM 36.5 °F 31.8 °F 28.4 °F 72% 30.45 in 10.0 mi SSW 5.8 mph - N/A   Clear
10:35 AM 37.4 °F 31.4 °F 28.9 °F 71% 30.45 in 10.0 mi South 8.1 mph - N/A   Clear
10:55 AM 38.5 °F 32.7 °F 29.7 °F 71% 30.44 in 10.0 mi SSW 8.1 mph - N/A   Clear
11:15 AM 39.2 °F 34.2 °F 30.0 °F 70% 30.43 in 10.0 mi SSW 6.9 mph - N/A   Clear
11:35 AM 40.3 °F 36.3 °F 30.6 °F 68% 30.42 in 10.0 mi SSW 5.8 mph - N/A   Clear
11:55 AM 41.2 °F 36.6 °F 30.7 °F 66% 30.41 in 10.0 mi SW 6.9 mph - N/A   Clear
12:15 PM 42.1 °F 37.1 °F 31.5 °F 66% 30.41 in 10.0 mi South 8.1 mph - N/A   Clear
12:35 PM 42.8 °F 37.5 °F 31.5 °F 64% 30.40 in 10.0 mi SSW 9.2 mph - N/A   Clear
12:55 PM 43.5 °F 38.9 °F 31.8 °F 63% 30.39 in 10.0 mi SW 8.1 mph - N/A   Clear
1:15 PM 44.4 °F 40.0 °F 32.4 °F 63% 30.39 in 10.0 mi SSW 8.1 mph - N/A   Clear
1:35 PM 45.3 °F 41.6 °F 32.7 °F 61% 30.38 in 10.0 mi SW 6.9 mph - N/A   Clear
1:55 PM 45.3 °F 41.6 °F 32.2 °F 60% 30.38 in 10.0 mi SW 6.9 mph - N/A   Clear
2:15 PM 45.7 °F 42.0 °F 32.5 °F 60% 30.37 in 10.0 mi SSW 6.9 mph - N/A   Clear
2:35 PM 45.9 °F 41.7 °F 32.4 °F 59% 30.36 in 10.0 mi SSW 8.1 mph - N/A   Clear
2:55 PM 45.9 °F 41.7 °F 32.9 °F 61% 30.36 in 10.0 mi South 8.1 mph - N/A   Clear
3:15 PM 45.9 °F 41.2 °F 32.5 °F 60% 30.36 in 10.0 mi South 9.2 mph - N/A   Clear
3:35 PM 45.5 °F 42.5 °F 32.5 °F 61% 30.36 in 10.0 mi South 5.8 mph - N/A   Clear
3:55 PM 44.2 °F 41.0 °F 32.5 °F 63% 30.36 in 10.0 mi SSE 5.8 mph - N/A   Clear
4:15 PM 42.8 °F 39.3 °F 32.2 °F 66% 30.36 in 7.0 mi South 5.8 mph - N/A   Clear
4:35 PM 39.9 °F 35.8 °F 31.8 °F 73% 30.36 in 10.0 mi SSE 5.8 mph - N/A   Clear
4:55 PM 40.1 °F 36.1 °F 31.1 °F 70% 30.36 in 10.0 mi South 5.8 mph - N/A   Clear
5:15 PM 38.1 °F 34.6 °F 30.9 °F 75% 30.36 in 10.0 mi SSE 4.6 mph - N/A   Clear
5:35 PM 38.7 °F 33.6 °F 30.2 °F 72% 30.35 in 10.0 mi SE 6.9 mph - N/A   Clear
5:55 PM 37.8 °F 32.5 °F 30.6 °F 75% 30.35 in 10.0 mi SE 6.9 mph - N/A   Clear
6:15 PM 37.4 °F 34.9 °F 30.9 °F 77% 30.35 in 10.0 mi SSE 3.5 mph - N/A   Clear
6:35 PM 36.9 °F 31.4 °F 30.9 °F 79% 30.35 in 10.0 mi SSE 6.9 mph - N/A   Clear
6:55 PM 37.0 °F 31.0 °F 30.6 °F 77% 30.35 in 10.0 mi SE 8.1 mph - N/A   Clear
7:15 PM 36.5 °F 31.0 °F 30.2 °F 78% 30.36 in 10.0 mi SSE 6.9 mph - N/A   Clear
7:35 PM 35.1 °F 29.3 °F 29.7 °F 81% 30.36 in 10.0 mi SSE 6.9 mph - N/A   Clear
7:55 PM 35.6 °F 29.9 °F 30.2 °F 81% 30.35 in 10.0 mi SSE 6.9 mph - N/A   Clear
8:35 PM 35.6 °F 30.7 °F 28.4 °F 75% 30.35 in 10.0 mi SSE 5.8 mph - N/A   Clear
8:55 PM 33.8 °F 28.6 °F 28.4 °F 81% 30.35 in 10.0 mi SE 5.8 mph - N/A   Clear
9:15 PM 34.3 °F 31.4 °F 28.4 °F 79% 30.35 in 10.0 mi SSE 3.5 mph - N/A   Clear
9:35 PM 34.9 °F 32.0 °F 28.0 °F 76% 30.35 in 10.0 mi SSE 3.5 mph - N/A   Clear
9:55 PM 33.3 °F 27.9 °F 27.9 °F 81% 30.35 in 10.0 mi SSE 5.8 mph - N/A   Clear
10:15 PM 32.2 °F - 27.7 °F 83% 30.35 in 10.0 mi Calm Calm - N/A   Clear
10:35 PM 33.8 °F - 28.4 °F 81% 30.35 in 10.0 mi Calm Calm - N/A   Clear
10:55 PM 33.8 °F 30.8 °F 26.6 °F 75% 30.36 in 10.0 mi SSE 3.5 mph - N/A   Clear
11:15 PM 32.5 °F 29.3 °F 27.1 °F 80% 30.36 in 10.0 mi SSE 3.5 mph - N/A   Clear
11:35 PM 30.0 °F 25.2 °F 26.4 °F 86% 30.36 in 10.0 mi SSE 4.6 mph - N/A   Clear
11:55 PM 30.4 °F 22.9 °F 26.6 °F 86% 30.35 in 10.0 mi SSE 8.1 mph - N/A   Clear